COSMOS 2491 DEB, 57568

Orbit data source: Space-Track

COSMOS 2491 DEB, 57568 is space debris in LEO originally from a launch on Wed, 25 Dec 2013 UTC launched from the Plesetsk Missile And Space Complex (PKMTR). Debris objects in space refer to the collection of defunct objects orbiting the Earth. Examples of debris include non-operational satellites, rocket bodies, and fragments generated from explosions, collisions, or faulty payload assembly.

Loading next visibility...
Identifier
57568, 2013-076BF
Orbit
LEO
Country
Flag of CISCIS
Related business
Manufacturer
TsNIIKhM
Mission
Spacecraft
Bus & Motor
Unknown
Mass
Unknown
Launch date (UTC)
2013-12-25 (12 years ago)
Launch vehicle
Unknown
Launch site
Plesetsk Missile And Space Complex (PKMTR)
Object type
Payload
Rocket body
Debris
Shape & HBR
Unknown shape, 0.1 m
Radar Cross Section
Small (<0.1 m²)

Expand to show TLE details & history
Last TLE update: 5 days ago

TLE from 5 days ago
0 COSMOS 2491 DEB
1 57568U 13076BF  26116.33698578  .00004057  00000-0  21278-1 0  9990
2 57568  82.4684 151.6616 0026632  58.1008 302.2671 12.66749616136720
Epoch: 2026-04-26T08:05Z
TLE epoch observation values (Epoch: 2026-04-26T08:05:15.571Z)
Latitude
-0.00003°
Longitude
176.00426°
Altitude
1,386.928 km
Speed
7.171 km/s
True Right ascension
10h 06m 38s
True Declination
0° 00' 00"
Sunlit
Object was in daylight at epoch
Visualization orbit readout
Latitude
Unknown
Longitude
Unknown
Altitude
Unknown
Speed
Unknown
Apparent Right ascension
Unknown
Apparent Declination
Unknown
Sunlit
N/A
Visualization observer readout
Local Sidereal Time
18:12:15
Azimuth
Unknown
Elevation
Unknown
Doppler factor
Unknown
Orbital elements
Apogee altitude
1,413.222 km
Perigee altitude
1,371.833 km
Semi-major axis
7,770.664 km
Eccentricity
0.00266
Inclination
82.4684°
RAAN
151.6616°
Arg. of periapsis
58.1008°
True anomaly
302.00859°
Mean anomaly
302.2671°
Eccentric anomaly
302.13789°
Mean motion
3.16852 °/min
Orbital period
113.62 mins
BSTAR
0.021278
Loading maneuver chart data...
Computing Atmospheric mass density...
Loading historical data...
Loading historical data...
Loading historical data...
Loading historical data...
Loading historical data...
Loading historical data...
Loading historical data...

Documentation

Showing up to 5 results
|